CAPE
33 135 86 8 0 0 0 0 0 0 0 0 0 0 0 0 0 0 0 0 0 0 0 0 0 0 0 0 0 0 0 0 0 61 211 450 399 403 508 559 825 899 386
20 149 75 0 0 0 0 0 0 0 0 0 0 0 0 0 0 0 0 0 0 0 0 0 0 0 0 0 0 0 0 0 0 0 0 62 447 417 467 596 489 620 360
28 142 57 23 0 0 0 0 0 0 0 0 0 0 0 0 0 0 0 0 0 0 0 0 1 0 0 0 0 0 0 0 0 0 0 0 270 544 406 681 581 584 420
54 165 91 59 29 26 0 0 0 0 0 0 0 0 0 0 0 0 0 0 0 0 0 0 2 85 23 0 0 0 0 0 0 0 0 0 0 579 503 504 487 562 430
29 297 170 90 86 80 38 0 0 0 0 0 0 0 0 0 0 0 3 0 0 69 63 54 19 185 291 122 8 0 0 0 0 0 0 0 0 131 357 405 624 361 448
39 307 389 276 118 114 92 1 0 0 0 0 0 0 0 8 18 39 58 99 100 129 243 219 156 109 308 169 178 95 0 0 0 0 0 0 0 64 175 533 479 576 277
40 97 717 427 144 140 133 33 25 0 0 16 33 56 97 109 116 145 275 452 470 494 452 328 338 207 192 118 84 133 45 71 2 17 0 4 2 0 0 173 657 663 366
46 42 190 749 370 186 225 109 71 34 42 109 218 232 248 311 466 724 739 783 719 651 568 499 274 187 61 149 126 73 44 10 23 52 44 89 26 0 0 1 734 565 421
34 34 83 1264 950 545 411 385 254 177 148 258 307 337 408 433 696 1024 781 576 328 236 213 217 304 371 278 194 107 99 77 94 0 16 59 107 74 1 0 11 687 757 480
76 45 106 250 1323 1037 618 957 723 457 313 381 324 439 518 537 883 624 25 1 3 27 43 51 99 151 258 238 186 165 118 61 0 0 48 97 78 0 0 0 707 696 663
21 102 80 98 438 783 394 684 1088 981 795 685 596 625 487 318 172 368 346 51 0 0 0 2 25 39 73 130 112 87 96 0 0 4 7 90 119 17 7 0 209 663 630
26 48 104 149 333 629 332 405 1308 842 811 695 429 299 880 431 316 461 292 20 0 0 0 3 135 168 117 16 22 46 19 0 1 7 44 92 48 20 0 89 1 409 563
1 55 110 308 463 611 502 369 1259 909 705 657 540 546 586 439 487 606 488 477 341 176 294 107 185 200 29 75 20 68 55 11 0 28 81 74 34 0 0 46 30 135 512
6 4 80 234 725 1025 558 360 646 902 689 592 720 911 696 517 619 654 431 386 411 274 238 52 23 64 59 24 26 39 70 27 20 29 57 17 9 0 0 62 70 110 501
3 3 28 329 964 1379 1276 507 749 747 558 718 608 620 685 573 654 598 626 581 413 275 334 111 43 56 41 10 29 48 59 31 69 35 47 41 6 0 0 74 126 192 639
0 7 33 382 963 1519 1478 1251 1162 1046 629 629 454 324 624 812 684 593 617 711 563 544 400 340 48 43 63 32 49 44 89 64 56 91 51 33 0 0 0 66 127 280 581
0 3 157 549 996 1584 1795 1592 1194 864 679 556 428 331 574 844 788 788 657 982 758 353 478 230 281 125 125 70 45 56 76 116 66 76 58 38 45 0 0 13 33 337 353
6 36 261 422 1086 1699 1852 1719 1234 804 751 331 298 460 856 907 855 815 860 997 832 807 681 637 189 177 222 34 28 41 77 87 97 119 55 52 37 129 40 18 4 173 113
0 119 368 695 880 1811 2076 1693 1374 1028 606 334 348 540 522 715 770 850 1053 858 818 755 675 434 260 314 203 63 38 139 128 106 87 71 80 22 30 77 126 69 0 0 36
25 273 671 765 1088 1911 1877 1893 1209 662 561 339 489 473 495 743 756 834 1020 932 750 695 431 274 370 295 188 133 93 77 142 152 77 46 69 31 40 25 153 303 108 0 125
115 314 756 1018 1002 1708 1794 1442 876 571 566 447 461 489 736 833 743 829 1014 784 588 587 511 394 309 99 164 257 220 169 139 127 132 32 32 49 69 73 244 245 623 427 800
294 598 739 680 1227 1687 1661 1206 666 502 427 450 391 589 812 749 750 666 860 623 606 533 299 203 219 145 117 269 196 194 121 103 74 41 57 38 145 272 294 372 226 758 1196
414 579 576 696 1168 1617 1162 785 466 401 456 531 343 492 624 652 582 657 553 493 524 409 325 311 289 235 244 145 243 240 145 24 19 78 83 184 284 584 491 580 790 960 1136
487 602 760 1063 1364 961 539 473 639 477 232 236 464 214 334 394 337 299 485 471 500 390 470 473 294 229 200 249 272 380 387 230 77 87 314 288 571 691 797 808 916 973 1041
514 682 1078 1132 643 495 508 497 345 193 264 231 85 318 569 634 414 236 416 384 331 549 625 593 385 268 284 311 386 309 253 411 70 251 164 433 611 692 998 946 1257 1189 1043
534 869 868 620 601 434 385 423 366 350 199 82 173 226 461 377 302 226 184 253 320 549 553 394 372 316 534 529 411 371 269 330 218 137 292 476 484 1009 906 1205 1012 784 717
CIN
-66 -414 -600 -520 0 0 0 0 0 0 0 0 0 0 0 0 0 0 0 0 0 0 0 0 0 0 0 0 0 0 0 0 0 -114 -65 -26 -31 -27 -20 -14 -8 -1 -22
-40 -391 -616 0 0 0 0 0 0 0 0 0 0 0 0 0 0 0 0 0 0 0 0 0 0 0 0 0 0 0 0 0 0 0 0 -124 -23 -28 -27 -15 -20 -1 -21
-56 -336 -586 -585 0 0 0 0 0 0 0 0 0 0 0 0 0 0 0 0 0 0 0 0 0 0 0 0 0 0 0 0 0 0 0 0 -10 -25 -36 -17 -17 -8 -12
-117 -306 -422 -551 -527 -497 0 0 0 0 0 0 0 0 0 0 0 0 0 0 0 0 0 0 0 -42 -25 0 0 0 0 0 0 0 0 0 0 -19 -32 -24 -16 -6 -8
-147 -236 -316 -501 -485 -453 -458 0 0 0 0 0 0 0 0 0 0 0 -145 0 0 -67 -65 -74 -110 -24 -3 -25 -6 0 0 0 0 0 0 0 0 -16 -35 -22 -7 -18 -8
-166 -167 -270 -404 -467 -429 -417 -284 0 0 0 0 0 0 0 -268 -223 -174 -168 -117 -76 -30 -14 -31 -33 -34 -2 -28 -17 -35 0 0 0 0 0 0 0 -53 -50 -19 -10 -1 -20
-119 -155 -198 -342 -436 -400 -376 -374 -362 -12 -10 -278 -252 -226 -205 -179 -153 -102 -21 0 0 0 0 -1 -4 -14 -18 -44 -56 -40 -93 -79 -1 -1 0 -2 -1 0 0 -72 -4 -2 -14
-61 -140 -158 -291 -352 -384 -341 -321 -320 -323 -288 -249 -203 -177 -164 -137 -82 -19 -1 0 0 0 0 0 -8 -11 -48 -48 -50 -74 -104 -29 -1 -133 -1 -87 -11 0 0 -80 -3 -4 -11
-30 -82 -112 -183 -281 -334 -304 -283 -271 -285 -265 -221 -187 -161 -138 -111 -38 0 -1 -14 -38 -48 -39 -23 -1 0 -3 -12 -55 -66 -70 -72 0 -5 -41 -152 -195 -9 0 -101 -1 -2 -5
-9 -12 -82 -115 -135 -199 -239 -225 -221 -229 -228 -215 -205 -163 -122 -97 -26 -39 -139 -5 -7 -194 -175 -145 -86 -15 0 0 -12 -25 -49 -95 0 0 -2 -139 -192 -1 0 0 -1 0 0
-6 -5 -43 -83 -128 -144 -178 -182 -176 -167 -175 -172 -166 -144 -146 -152 -143 -85 -78 -148 0 0 0 -86 -183 -122 -41 -6 -13 -30 -75 0 0 -2 -2 -44 -175 -80 -18 0 -59 -1 -1
-5 -10 -31 -98 -115 -116 -131 -143 -116 -140 -137 -145 -159 -180 -73 -127 -108 -45 -63 -252 0 0 0 -64 -72 -40 -34 -86 -163 -105 -115 0 -1 -1 -2 -110 -106 -34 0 -116 -8 -13 -2
-1 -7 -25 -67 -124 -116 -108 -83 -75 -92 -140 -124 -130 -116 -100 -103 -51 -23 -32 -22 -68 -97 -25 -86 -33 -31 -121 -64 -3 -107 -98 -8 0 -2 -76 -19 -44 -5 0 -116 -114 -59 -3
-8 -7 -14 -68 -154 -142 -99 -93 -80 -61 -118 -119 -85 -77 -94 -97 -59 -41 -44 -11 -4 -3 -3 -36 -83 -37 -48 -30 -8 -20 -50 -3 -2 -1 -2 -17 -29 0 0 -97 -71 -47 -1
-58 -32 -14 -72 -144 -176 -119 -92 -111 -82 -110 -95 -96 -103 -122 -84 -33 -20 -9 -6 -5 -1 -1 -13 -39 -53 -47 -25 -11 -18 -43 -35 -8 -2 -4 -38 -35 0 0 -67 -28 -16 0
0 -26 -34 -67 -147 -192 -180 -89 -114 -93 -88 -136 -127 -145 -104 -71 -44 -33 -14 -4 -3 -4 -2 -2 -10 -10 -33 -87 -71 -18 -62 -22 -18 -78 -13 -17 0 0 0 -25 -30 -4 0
0 -39 -69 -56 -154 -223 -180 -134 -131 -143 -144 -155 -170 -167 -104 -54 -37 -32 -13 -4 -8 -18 -8 -12 -6 -3 -1 -10 -2 -5 -32 -78 -3 -18 -16 -10 -15 0 0 -27 -20 -8 -11
-111 -81 -92 -66 -144 -233 -200 -160 -146 -146 -195 -173 -166 -115 -55 -53 -42 -22 -6 -1 -1 -1 -2 0 -8 -1 -3 -12 -4 -4 -2 -4 -90 -92 -17 -1 -1 -48 -38 -34 -9 -25 -51
-37 -92 -90 -125 -151 -221 -162 -162 -153 -144 -207 -191 -156 -98 -56 -37 -25 -6 -1 -1 -1 0 0 0 -1 -1 -4 -4 -5 -7 -2 -1 -7 -3 -2 -2 -7 -73 -39 -38 0 0 -42
-86 -97 -139 -162 -198 -188 -148 -120 -160 -199 -218 -174 -143 -109 -65 -17 -13 -7 -1 0 -1 0 -1 -2 0 -5 -3 -9 -3 -4 -3 -2 -8 -1 -4 -4 -1 -1 -44 -15 -58 0 -74
-101 -150 -229 -286 -295 -186 -131 -151 -191 -199 -192 -176 -142 -103 -36 -11 -11 -2 0 0 0 0 0 -1 0 -7 -3 -1 -1 -2 -6 -2 -2 -2 -23 -2 -1 -24 -13 -17 -1 -3 -36
-172 -285 -358 -379 -294 -198 -139 -156 -168 -160 -163 -151 -107 -49 -11 -11 -2 -3 -1 -1 0 -1 -2 -1 -1 -1 -7 -3 0 0 0 -1 -3 -4 -2 -8 -5 -2 -1 -2 -13 -2 -12
-273 -372 -405 -399 -301 -174 -181 -194 -218 -187 -123 -114 -99 -27 -9 -10 -1 -3 -1 -1 0 -1 -2 -1 -1 -2 0 -8 -3 -1 0 -1 -1 -4 -6 -2 -1 -3 -3 -2 -1 -1 0
-315 -363 -390 -304 -238 -259 -295 -265 -170 -145 -145 -95 -32 -15 -13 -4 -8 -1 -1 0 0 0 -1 -1 -1 -1 -1 -1 -1 -7 -9 -9 -3 -1 -4 -9 -8 -7 -3 -8 -5 -2 -1
-334 -358 -299 -272 -324 -350 -271 -223 -228 -173 -117 -73 -74 -21 -6 -1 -1 -1 -2 -2 -1 -1 0 -1 -1 -1 -4 -5 -5 -7 -1 -1 -20 -4 -2 -1 -10 -10 -1 -5 -3 -2 0
-337 -306 -304 -337 -289 -308 -265 -216 -162 -128 -91 -83 -37 -1 -10 -3 -1 -1 -1 -1 -1 0 -1 -1 -1 -5 -2 -3 -8 -4 -2 -1 -2 -5 -5 -6 -3 -1 -6 0 -1 -11 -1
Wind_Speed
15 12 11 11 10 11 11 12 14 14 14 15 15 15 15 14 14 13 14 14 15 16 17 18 19 20 21 21 21 21 20 21 22 22 22 22 20 18 15 14 11 11 7
12 11 10 10 9 9 10 11 12 13 13 14 15 16 16 15 14 14 14 15 16 17 17 18 19 20 20 21 21 21 21 21 22 23 24 25 21 19 18 15 15 15 7
11 9 8 8 8 8 9 10 11 12 12 13 14 15 15 16 15 16 15 16 16 18 19 19 19 19 20 21 21 22 21 22 23 24 26 26 25 16 17 17 16 16 8
10 8 7 7 6 7 8 8 9 10 11 12 13 14 16 16 16 15 16 16 16 18 20 21 21 20 19 21 21 22 23 22 22 24 26 26 29 15 17 18 17 16 9
8 7 6 7 5 5 6 6 8 9 9 11 12 14 15 16 16 15 14 14 15 18 20 21 22 22 20 19 20 21 22 23 23 25 25 26 25 20 19 20 19 14 7
7 5 5 6 6 5 5 5 6 7 8 9 11 13 15 16 17 18 16 14 14 14 19 22 24 24 22 22 22 22 23 23 24 25 25 24 24 20 21 22 22 18 9
6 3 3 5 5 5 5 4 4 5 6 7 10 13 14 16 19 20 21 19 16 15 16 19 24 24 23 23 23 23 23 24 26 25 24 23 24 21 23 24 23 19 11
5 3 2 3 5 5 5 3 2 4 5 6 9 11 15 17 19 20 21 21 21 21 22 24 26 24 25 25 24 23 24 25 25 27 28 25 20 19 23 25 25 22 11
5 2 1 1 4 6 5 3 2 1 3 6 8 11 15 17 19 22 22 21 21 21 23 26 27 27 25 26 26 25 26 26 27 28 24 27 22 21 22 23 24 22 14
6 2 1 1 3 6 6 4 3 2 3 5 7 11 14 17 19 19 18 16 17 20 21 22 23 25 27 25 27 26 27 27 27 29 25 23 19 19 20 22 24 22 16
9 3 2 3 3 5 5 4 4 3 4 5 7 10 14 16 18 14 12 17 18 18 19 19 20 20 22 26 25 26 26 27 27 24 28 20 18 20 21 23 24 22 18
7 4 5 5 4 4 5 4 3 4 4 5 7 10 13 15 16 20 21 19 18 14 14 14 15 15 16 19 16 14 20 23 23 26 23 13 17 20 22 23 24 24 22
11 7 6 6 6 6 6 4 3 3 4 4 6 8 13 15 17 16 17 16 14 10 16 11 11 12 13 19 22 18 15 15 19 24 21 16 16 20 22 24 24 24 23
12 11 6 8 8 7 6 6 4 3 2 5 5 7 11 13 15 15 17 19 18 18 19 19 18 18 21 23 26 24 26 21 16 19 22 16 18 21 23 25 24 25 24
14 15 10 8 8 8 9 7 6 4 3 4 6 8 9 12 15 16 19 20 19 19 20 19 20 20 21 21 25 22 25 28 23 18 21 19 20 20 22 25 25 25 24
15 13 8 9 9 8 9 9 7 5 5 4 6 8 8 12 15 17 18 15 14 16 17 19 19 21 22 21 20 21 18 23 27 19 17 18 17 17 21 24 24 25 24
15 13 8 8 9 9 9 11 8 6 5 5 6 9 10 12 16 18 17 18 16 16 15 13 19 20 19 22 20 17 16 18 18 21 22 23 15 17 17 22 24 24 23
18 15 8 8 10 9 9 10 9 7 5 5 6 8 9 12 16 19 18 18 17 16 15 15 14 16 15 21 20 16 14 15 17 18 20 22 24 17 18 20 21 22 22
18 16 10 8 10 9 8 8 7 6 5 4 6 9 11 13 16 18 19 19 18 17 15 16 17 17 20 18 24 16 16 16 14 16 19 19 24 23 19 15 18 22 24
17 14 8 8 8 8 6 6 6 4 4 5 8 9 12 15 18 19 19 18 18 17 16 15 14 15 17 19 21 18 16 13 20 19 22 19 21 20 23 13 16 21 21
17 13 7 6 7 7 6 6 5 4 4 6 9 11 14 16 19 20 18 18 17 17 17 17 16 16 15 18 17 19 19 20 18 13 17 17 20 19 19 23 15 15 15
13 7 4 4 6 7 4 4 2 3 4 6 9 11 15 18 20 20 17 17 16 16 14 12 12 14 16 14 15 16 15 17 20 17 15 18 16 19 17 21 19 18 14
9 4 3 2 4 5 4 1 3 5 9 10 11 13 13 17 18 16 17 15 13 10 13 11 11 11 16 17 14 15 13 15 10 13 15 14 15 19 19 20 18 18 14
3 2 1 3 5 3 3 1 2 5 8 10 14 17 19 17 17 16 15 10 9 10 12 12 11 12 11 12 10 12 18 16 11 10 15 19 16 15 16 20 20 18 13
1 1 2 3 4 3 2 3 4 7 10 13 14 16 15 16 15 11 11 10 10 11 11 11 11 10 9 9 6 4 6 16 11 19 7 11 16 19 21 19 16 12 7
2 2 3 4 4 4 4 5 7 9 12 13 14 16 14 13 11 10 11 12 13 14 15 15 16 17 20 22 24 25 20 25 24 23 16 12 12 16 15 16 10 8 9
Wind_Direction
31 69 98 94 83 71 62 56 56 55 52 48 42 36 30 22 13 3 352 346 334 327 322 318 315 311 304 303 302 301 300 295 290 288 286 289 292 294 304 309 323 320 344
39 75 99 98 87 72 61 55 56 57 53 47 38 32 26 19 11 2 351 339 329 323 322 318 316 313 309 303 301 301 299 297 293 288 284 281 287 290 293 299 303 302 322
39 68 101 100 89 75 68 59 61 55 51 43 38 33 27 20 11 357 347 338 329 319 313 314 315 312 309 306 301 298 297 296 293 288 283 279 279 290 289 290 294 295 306
50 74 103 112 96 80 73 66 67 59 49 42 37 30 21 15 10 6 354 340 332 322 314 310 310 310 309 305 302 299 296 296 295 290 284 279 273 287 290 283 287 293 293
46 77 105 123 111 91 84 75 72 66 51 40 31 22 15 9 5 3 1 354 340 323 314 311 308 305 306 306 304 299 296 294 294 290 285 278 279 284 286 281 281 289 283
37 79 98 132 133 122 109 87 83 64 46 37 28 18 11 5 359 351 350 348 341 336 317 309 306 301 301 301 301 300 296 294 293 290 284 282 279 284 287 282 279 280 274
19 49 60 143 157 149 137 106 92 64 46 37 21 14 8 2 354 345 338 336 333 327 321 315 306 301 299 300 300 298 297 293 289 288 286 285 282 279 282 280 278 280 272
0 32 38 165 175 177 167 145 110 61 44 22 12 7 3 357 353 347 339 331 328 323 316 309 305 303 297 296 297 296 293 292 289 284 282 285 283 285 283 278 276 278 271
345 352 334 322 199 192 189 193 173 46 26 11 2 359 356 354 350 344 341 336 330 325 317 308 301 297 298 293 292 292 290 288 283 281 285 280 285 285 283 278 277 277 272
341 300 248 299 201 196 203 222 228 291 342 354 357 355 354 351 348 348 346 343 339 332 326 319 310 301 294 294 290 288 287 285 281 277 281 281 283 287 284 280 277 278 273
339 293 257 211 190 207 214 220 245 281 315 341 346 349 350 351 349 351 353 351 345 336 331 327 320 314 303 294 292 287 285 282 279 281 277 275 280 281 286 279 276 278 275
314 279 240 235 221 217 213 213 253 269 308 328 336 344 350 352 350 350 345 345 343 342 338 332 327 322 316 307 302 292 291 284 281 277 282 278 280 282 283 279 275 275 275
316 301 253 228 223 216 212 213 305 279 307 322 332 340 346 349 347 349 349 347 346 343 342 335 331 330 321 308 304 297 296 291 280 279 287 284 283 279 281 278 275 273 275
310 312 268 220 218 224 227 224 263 290 301 326 337 340 345 347 346 348 347 342 338 335 332 327 324 317 312 306 297 292 287 288 288 279 280 286 286 284 278 275 274 272 274
304 305 301 214 215 225 225 231 236 253 288 322 333 341 344 343 345 343 341 338 334 333 327 323 318 316 313 311 297 295 283 278 287 283 279 283 288 286 274 272 272 271 270
307 299 284 218 213 222 227 234 232 265 289 301 324 333 337 340 342 339 339 337 335 330 326 318 314 312 308 309 306 296 292 280 275 279 284 283 286 289 273 270 271 269 268
309 301 276 232 213 223 225 216 227 251 253 296 317 330 335 337 338 336 336 334 330 329 328 325 315 313 310 303 304 301 299 284 279 279 283 280 281 285 274 268 268 267 268
308 302 276 232 218 224 220 221 233 246 232 274 319 331 333 335 336 334 332 332 331 329 325 323 318 315 315 298 301 302 300 289 281 280 277 278 276 281 278 269 267 266 267
298 296 274 235 221 212 216 219 230 248 247 280 319 329 333 334 335 333 332 332 330 329 326 320 312 303 301 298 290 302 298 290 286 283 277 279 273 276 276 271 266 263 265
293 292 270 231 231 219 219 233 223 243 255 297 321 327 332 333 335 334 333 333 331 329 325 321 313 305 299 292 291 297 297 292 282 280 278 278 277 274 270 270 271 264 265
291 286 263 249 225 205 221 216 222 253 282 310 324 330 331 334 335 333 334 332 331 328 324 320 313 303 297 292 293 292 290 283 284 285 281 280 274 273 271 267 273 268 266
289 280 239 210 189 192 207 196 240 296 325 331 334 334 334 335 334 333 335 334 333 332 332 330 322 310 301 293 290 289 291 286 278 280 280 278 276 272 272 265 267 270 267
282 254 206 195 178 175 166 166 346 346 345 341 336 335 338 343 341 342 339 342 349 356 346 340 328 314 301 288 283 284 290 291 282 277 275 276 275 268 267 264 268 267 261
273 233 193 138 144 145 127 25 349 342 340 346 345 345 342 350 350 350 354 14 31 16 359 353 343 321 304 294 290 278 281 290 280 281 279 269 271 271 270 263 262 262 253
16 98 120 111 113 93 81 23 9 350 349 349 350 349 358 359 2 19 38 72 77 59 74 68 60 29 324 298 299 299 305 276 279 270 292 273 268 264 258 259 263 258 232
74 83 99 107 84 92 64 26 360 358 359 1 359 357 5 12 38 73 91 80 69 95 121 124 114 128 199 213 212 221 246 230 238 241 262 264 264 259 263 258 257 242 227